Tracking 22836 objects as of 18-Apr-2021
HD Live streaming from Space Station
objects crossing your sky now

DELTA 1 DEB

Track DELTA 1 DEB now!
10-day predictions


NORAD ID: 9701
Int'l Code: 1973-086FZ
Perigee: 1,197.8 km
Apogee: 1,260.5 km
Inclination: 102.7 °
Period: 109.9 minutes
Semi major axis: 7600 km
RCS: 0.0221 m2 (small)
Launch date: November 6, 1973
Source: United States (US)
Launch site: AIR FORCE WESTERN TEST RANGE (AFWTR)

Note: This is SATELLITE DEBRIS
aabbcc
Your satellite tracking list
Your tracking list is empty




NASA's NSSDC Master Catalog

Two Line Element Set (TLE):
1 09701U 73086FZ  21107.83782985  .00001740  00000-0  51315-2 0  9991
2 09701 102.6559 308.2924 0041237 311.8615  63.0617 13.10301152201538
Source of the keplerian elements: AFSPC